Simultaneous Nadir Overpasses (SNOs) Predictions

Prediction of SNOs between GOES-17 and LANDSAT-8 Satellite Orbit:

Table of predicted SNOs for the next 14.0 days since TLE Epoch: 3/28/2025
Index Date Time (GOES-17) GOES-17 Lat,Lon LANDSAT-8 Lat,Lon Distance(km) Time Diff (sec)
1 03/30/2025 05:09:21 -0.03,-104.39 0.06,-104.02 41.60 80
2 04/01/2025 04:57:10 -0.03,-104.39 0.69,-101.07 377.63 80
3 04/01/2025 17:18:25 0.03,-104.43 0.44,-106.22 204.36 80
4 04/03/2025 17:03:34 0.02,-104.43 -0.24,-103.28 131.54 80
5 04/04/2025 05:27:38 -0.03,-104.39 -0.86,-108.47 463.40 80
6 04/05/2025 16:51:21 0.02,-104.43 -0.82,-100.31 467.71 80
7 04/06/2025 05:12:45 -0.02,-104.39 -0.27,-105.51 127.06 80
8 04/08/2025 05:03:12 -0.02,-104.40 0.35,-102.55 210.03 80
9 04/08/2025 17:21:48 0.01,-104.44 0.69,-107.71 371.54 80
10 04/10/2025 17:09:34 0.01,-104.45 0.09,-104.74 33.62 80
